FW9009 Weather Reports


time (UTC)temp
C
wind
direction
speed
KPH
gust
KPH
rain 1hr
cm
rain 24hr
cm
rain mn
cm
humidity
%
barometer
mb
20260505040244 13 84 0.0 0.0 0.00 0.00 0.00 71 1009.5
20260505035741 13 80 0.0 0.0 0.00 0.00 0.00 71 1009.4
20260505035236 13 80 0.0 0.0 0.00 0.00 0.00 71 1009.3
20260505034733 13 80 0.0 0.0 0.00 0.00 0.00 69 1009.6
20260505034230 13 81 0.0 0.0 0.00 0.00 0.00 69 1009.4
20260505033727 13 80 0.0 0.0 0.00 0.00 0.00 68 1009.6
20260505033225 13 80 0.0 0.0 0.00 0.00 0.00 70 1009.7
20260505032723 13 80 0.0 0.0 0.00 0.00 0.00 72 1009.6
20260505032218 13 80 0.0 0.0 0.00 0.00 0.00 72 1009.4
20260505031716 13 80 0.0 0.0 0.00 0.00 0.00 70 1009.7
20260505031212 13 80 0.0 0.0 0.00 0.00 0.00 72 1009.8
20260505030709 13 81 0.0 0.0 0.00 0.00 0.00 71 1009.6
20260505030205 13 80 0.0 0.0 0.00 0.00 0.00 71 1009.5
20260505025701 13 81 0.0 0.0 0.00 0.00 0.00 72 1009.7
20260505025159 13 80 0.0 0.0 0.00 0.00 0.00 69 1009.6
20260505024657 13 81 0.0 0.0 0.00 0.00 0.00 69 1009.5
20260505024154 13 81 0.0 0.0 0.00 0.00 0.00 72 1009.4
20260505023651 13 81 0.0 0.0 0.00 0.00 0.00 73 1009.7
20260505023149 13 81 0.0 0.0 0.00 0.00 0.00 72 1009.8
20260505022646 13 81 0.0 0.0 0.00 0.00 0.00 71 1009.7
20260505022143 13 81 0.0 0.0 0.00 0.00 0.00 70 1009.6
20260505021639 14 81 0.0 0.0 0.00 0.00 0.00 69 1009.9
20260505021136 14 81 0.0 0.0 0.00 0.00 0.00 66 1009.7
20260505020632 14 81 0.0 0.0 0.00 0.00 0.00 65 1009.8
20260505020128 15 81 0.0 0.0 0.00 0.00 0.00 64 1009.8
20260505015625 15 81 0.0 0.0 0.00 0.00 0.00 62 1009.6
20260505015122 15 81 0.0 0.0 0.00 0.00 0.00 62 1009.9
20260505014619 15 80 0.0 0.0 0.00 0.00 0.00 60 1009.6
20260505014116 15 80 0.0 0.0 0.00 0.00 0.00 58 1009.6
20260505013613 15 81 0.0 0.0 0.00 0.00 0.00 60 1009.3
20260505013110 16 81 0.0 0.0 0.00 0.00 0.00 59 1009.6
20260505012609 16 81 0.0 0.0 0.00 0.00 0.00 56 1009.7
20260505012105 16 81 0.0 0.0 0.00 0.00 0.00 56 1009.5
20260505011600 16 82 0.0 0.0 0.00 0.00 0.00 57 1009.4
20260505011058 16 70 0.0 0.0 0.00 0.00 0.00 55 1009.4
20260505010553 16 74 0.0 0.0 0.00 0.00 0.00 55 1009.2
20260505010050 16 71 0.0 0.0 0.00 0.00 0.00 56 1009.1
20260505005546 16 69 0.0 1.6 0.00 0.00 0.00 55 1009.3
20260505005043 16 90 0.0 0.0 0.00 0.00 0.00 58 1009.0
20260505004535 16 75 0.0 0.0 0.00 0.00 0.00 58 1009.1
20260505004032 16 74 0.0 0.0 0.00 0.00 0.00 55 1009.1
20260505003529 16 90 0.0 0.0 0.00 0.00 0.00 56 1009.0
20260505003026 16 90 0.0 0.0 0.00 0.00 0.00 57 1008.8
20260505002526 17 90 0.0 0.0 0.00 0.00 0.00 58 1008.9
20260505002026 17 89 0.0 0.0 0.00 0.00 0.00 53 1009.1
20260505001523 17 90 0.0 0.0 0.00 0.00 0.00 53 1008.9
20260505001020 18 90 0.0 0.0 0.00 0.00 0.00 51 1008.8
20260505000517 18 83 0.0 0.0 0.00 0.00 0.00 48 1008.9
20260505000015 18 84 0.0 0.0 0.00 0.00 0.00 48 1008.7
20260504235511 18 56 0.0 0.0 0.00 0.00 0.00 48 1008.7
20260504235008 18 79 0.0 0.0 0.00 0.00 0.00 48 1008.6
20260504234505 19 61 0.0 1.6 0.00 0.00 0.00 47 1008.8
20260504234002 19 76 0.0 0.0 0.00 0.00 0.00 47 1008.6
20260504233457 19 75 0.0 0.0 0.00 0.00 0.00 47 1008.8
20260504232954 19 80 0.0 0.0 0.00 0.00 0.00 46 1008.7
20260504232451 20 103 0.0 0.0 0.00 0.00 0.00 46 1008.8
20260504231949 20 106 0.0 0.0 0.00 0.00 0.00 47 1008.8
20260504231445 20 81 0.0 0.0 0.00 0.00 0.00 45 1008.8
20260504230941 20 44 0.0 1.6 0.00 0.00 0.00 42 1008.6
20260504230438 20 87 0.0 0.0 0.00 0.00 0.00 46 1008.7
20260504225937 20 118 0.0 0.0 0.00 0.00 0.00 43 1008.8
20260504225433 21 115 1.6 1.6 0.00 0.00 0.00 41 1008.7
20260504224931 21 140 4.8 4.8 0.00 0.00 0.00 43 1008.6
20260504224427 21 72 1.6 3.2 0.00 0.00 0.00 43 1008.7
20260504223924 21 90 0.0 1.6 0.00 0.00 0.00 45 1008.7
20260504223420 21 112 0.0 0.0 0.00 0.00 0.00 40 1008.6
20260504222916 21 127 1.6 1.6 0.00 0.00 0.00 41 1008.8
20260504222414 21 132 1.6 1.6 0.00 0.00 0.00 40 1008.5
20260504221911 21 118 1.6 3.2 0.00 0.00 0.00 40 1008.6
20260504221408 21 108 0.0 0.0 0.00 0.00 0.00 41 1008.7
20260504220905 21 91 0.0 0.0 0.00 0.00 0.00 40 1008.9
20260504220402 21 134 1.6 1.6 0.00 0.00 0.00 38 1008.8
20260504215859 22 121 1.6 1.6 0.00 0.00 0.00 39 1008.9
20260504215355 22 65 0.0 0.0 0.00 0.00 0.00 40 1009.1
20260504214851 22 144 1.6 4.8 0.00 0.00 0.00 39 1008.9
20260504214348 22 117 1.6 1.6 0.00 0.00 0.00 37 1008.9
20260504213845 22 47 1.6 3.2 0.00 0.00 0.00 39 1008.9
20260504213341 22 151 6.4 8.0 0.00 0.00 0.00 37 1008.9
20260504212838 22 129 1.6 1.6 0.00 0.00 0.00 37 1008.9
20260504212334 22 93 0.0 1.6 0.00 0.00 0.00 37 1009.1
20260504211832 22 88 0.0 1.6 0.00 0.00 0.00 37 1009.0
20260504211328 22 153 3.2 3.2 0.00 0.00 0.00 36 1008.8
20260504210826 22 132 1.6 3.2 0.00 0.00 0.00 36 1008.8
20260504210323 22 61 0.0 1.6 0.00 0.00 0.00 37 1008.9
20260504205820 22 69 0.0 0.0 0.00 0.00 0.00 36 1009.1
20260504205317 22 123 0.0 0.0 0.00 0.00 0.00 37 1009.0
20260504204815 22 128 3.2 3.2 0.00 0.00 0.00 35 1008.9
20260504204314 22 160 3.2 3.2 0.00 0.00 0.00 37 1009.1
20260504203813 22 81 1.6 1.6 0.00 0.00 0.00 36 1009.0
20260504203309 22 143 3.2 4.8 0.00 0.00 0.00 36 1009.2
20260504202804 22 67 0.0 0.0 0.00 0.00 0.00 38 1009.1
20260504202304 22 147 3.2 3.2 0.00 0.00 0.00 37 1009.3
20260504201759 22 95 0.0 1.6 0.00 0.00 0.00 39 1009.3
20260504201256 22 160 3.2 4.8 0.00 0.00 0.00 38 1009.2
20260504200754 22 64 0.0 1.6 0.00 0.00 0.00 40 1009.2
20260504200249 22 125 3.2 3.2 0.00 0.00 0.00 35 1009.5
20260504195746 22 111 1.6 1.6 0.00 0.00 0.00 38 1009.5
20260504195242 22 191 4.8 4.8 0.00 0.00 0.00 37 1009.8
20260504194739 21 130 1.6 1.6 0.00 0.00 0.00 44 1009.7
20260504194235 22 109 1.6 1.6 0.00 0.00 0.00 36 1009.8
20260504193732 22 177 3.2 4.8 0.00 0.00 0.00 38 1010.0
20260504193229 22 88 1.6 1.6 0.00 0.00 0.00 40 1009.7
20260504192727 22 94 1.6 3.2 0.00 0.00 0.00 37 1010.2
20260504192225 22 118 1.6 3.2 0.00 0.00 0.00 37 1010.2
20260504191724 22 59 0.0 1.6 0.00 0.00 0.00 38 1009.9
20260504191220 22 35 3.2 3.2 0.00 0.00 0.00 36 1010.0
20260504190715 21 107 3.2 4.8 0.00 0.00 0.00 37 1010.0
20260504190212 21 307 4.8 8.0 0.00 0.00 0.00 37 1010.3
20260504185709 22 326 4.8 12.9 0.00 0.00 0.00 38 1010.5
20260504185206 21 56 0.0 0.0 0.00 0.00 0.00 41 1010.4
20260504184702 22 118 1.6 3.2 0.00 0.00 0.00 38 1010.5
20260504184157 21 81 0.0 1.6 0.00 0.00 0.00 43 1010.2
20260504183654 21 145 1.6 1.6 0.00 0.00 0.00 37 1010.4
20260504183151 21 117 0.0 1.6 0.00 0.00 0.00 38 1010.3
20260504182649 21 164 8.0 8.0 0.00 0.00 0.00 37 1010.6
20260504182146 21 96 0.0 1.6 0.00 0.00 0.00 38 1010.9
20260504181643 20 131 4.8 4.8 0.00 0.00 0.00 38 1010.8
20260504181141 21 164 8.0 8.0 0.00 0.00 0.00 38 1011.1
20260504180640 21 177 6.4 8.0 0.00 0.00 0.00 40 1010.9
20260504180138 20 89 1.6 1.6 0.00 0.00 0.00 38 1011.1
20260504175635 20 137 4.8 4.8 0.00 0.00 0.00 39 1011.2
20260504175131 20 179 4.8 8.0 0.00 0.00 0.00 38 1011.4
20260504174630 21 130 1.6 1.6 0.00 0.00 0.00 39 1011.3
20260504174126 21 153 3.2 4.8 0.00 0.00 0.00 39 1011.5
20260504173623 21 102 0.0 1.6 0.00 0.00 0.00 38 1011.2
20260504173121 20 76 0.0 1.6 0.00 0.00 0.00 39 1011.3
20260504172617 20 70 0.0 1.6 0.00 0.00 0.00 39 1011.5
20260504172114 20 92 0.0 1.6 0.00 0.00 0.00 39 1011.4
20260504171610 20 298 3.2 3.2 0.00 0.00 0.00 38 1011.7
20260504171108 20 117 1.6 3.2 0.00 0.00 0.00 39 1011.7
20260504170603 20 127 1.6 1.6 0.00 0.00 0.00 39 1011.6
20260504150947 17 127 1.6 1.6 0.00 0.00 0.00 44 1013.0
20260504150444 18 87 0.0 1.6 0.00 0.00 0.00 45 1013.0
20260504140910 16 149 1.6 3.2 0.00 0.00 0.00 57 1013.3
20260504140406 16 111 1.6 1.6 0.00 0.00 0.00 54 1013.1
20260504130331 13 153 1.6 1.6 0.00 0.00 0.00 68 1013.7
20260504120254 8 110 0.0 0.0 0.00 0.00 0.00 98 1013.9
20260504110218 2 109 0.0 0.0 0.00 0.00 0.00 99 1014.0
20260504100142 1 109 0.0 0.0 0.00 0.00 0.00 98 1014.4
20260504090105 1 108 0.0 0.0 0.00 0.00 0.00 98 1014.3
20260504081535 1 109 0.0 0.0 0.00 0.00 0.00 97 1014.3
20260504081031 1 109 0.0 0.0 0.00 0.00 0.00 97 1014.2
20260504080527 1 109 0.0 0.0 0.00 0.00 0.00 97 1014.2
20260504050340 2 109 0.0 0.0 0.00 0.00 0.00 94 1014.1
20260504045837 2 109 0.0 0.0 0.00 0.00 0.00 93 1014.3
20260504045332 3 109 0.0 0.0 0.00 0.00 0.00 93 1014.2
20260504044829 3 109 0.0 0.0 0.00 0.00 0.00 93 1014.3
20260504044326 3 109 0.0 0.0 0.00 0.00 0.00 93 1014.3
20260504043824 3 109 0.0 0.0 0.00 0.00 0.00 93 1014.3
20260504043321 3 109 0.0 0.0 0.00 0.00 0.00 93 1014.3
20260504042818 3 109 0.0 0.0 0.00 0.00 0.00 92 1014.3
20260504042314 3 109 0.0 0.0 0.00 0.00 0.00 92 1014.0
20260504041811 3 109 0.0 0.0 0.00 0.00 0.00 92 1014.0
20260504041307 3 109 0.0 0.0 0.00 0.00 0.00 92 1013.8
20260504040803 3 109 0.0 0.0 0.00 0.00 0.00 92 1013.9